{"data":{"norad_id":67714,"intl_designator":"2026-025X","name":"STARLINK-36702","alt_names":[],"object_type":"PAYLOAD","status":"ACTIVE","operator":null,"country":"US","launch_date":"2026-02-07","launch_site_code":"AFWTR","launch_vehicle":null,"mission":null,"orbit_class":"UNKNOWN","rcs_meters":null,"size_class":null,"mass_kg":null,"dimensions":null,"purposes":["comms"],"wikipedia_slug":null,"has_3d_model":false,"image_url":null,"decayed_at":null,"tle_current":{"epoch":"2026-09-19T13:59:34.151424Z","epoch_age_seconds":145703,"freshness":"FRESH","line1":"1 67714U 26025X   26262.58303416  .00015084  00000+0  46848-3 0  9998","line2":"2 67714  97.2848  12.4718 0000441 105.7500 254.3792 15.33455239 35724","mean_motion":15.33455239,"eccentricity":4.41e-5,"inclination_deg":97.2848,"raan_deg":12.4718,"arg_perigee_deg":105.75,"mean_anomaly_deg":254.3792,"bstar":0.00046848,"rev_number":3572,"period_min":93.905577637796,"perigee_km":465.21090563515,"apogee_km":465.81451553963,"semimajor_km":6843.6497105874,"source":"CELESTRAK","updated_at":"2026-09-20T09:00:43.655422Z"}}}